[[{"header":{"parameterUnit":"m.s-1","parameterCategory":1,"la1":30.2991,"la2":30.254,"lo1":-89.0895,"lo2":-89.0444,"dy":0.0017,"dx":0.0017,"nx":28,"ny":28,"refTime":"2025-04-05T03:00:00:Z","depth":0,"parameterNumber":2,"parameterNumberName":"U-component_of_WINDS"},"data":[0,0,0,0,0,0,0,0,0,0,0,0,0,0,0,0,0,0,0,0,0,0,0,0,0,0,0,0,0,0,0,0,0,0,0,0,0,0,0,0,0,0,0,0,0,0,0,0,0,0,0,0,0,0,0,0,0,0,-4.7545,-4.7545,0,-4.7613,-4.7614,-4.7615,-4.761,-4.7609,-4.7608,-4.7607,-4.7676,-4.7678,-4.7681,0,0,0,0,0,0,0,0,0,0,0,0,0,-4.7408,-4.741,-4.7545,-4.7545,-4.7546,-4.7613,-4.7614,-4.7615,-4.761,-4.7609,-4.7607,-4.7606,-4.7675,-4.7678,-4.7681,0,0,0,0,0,0,0,0,0,0,0,0,0,-4.7471,-4.7411,-4.7544,-4.7552,-4.7553,-4.7613,-4.7614,-4.7615,-4.761,-4.7609,-4.7607,-4.7606,-4.7674,-4.7678,-4.7682,-4.7739,0,0,-4.7695,-4.7697,0,0,0,0,0,0,0,0,-4.7467,-4.7476,-4.755,-4.7551,-4.7553,-4.7601,-4.7591,-4.7657,-4.7611,-4.7588,-4.7607,-4.7605,-4.7652,-4.7658,-4.7674,-4.7742,-4.7745,-4.7695,-4.7698,-4.7699,-4.7701,0,0,0,0,0,0,0,-4.7463,-4.7473,-4.7572,-4.7551,-4.7553,-4.7551,-4.7559,-4.7604,-4.7628,-4.759,-4.759,-4.7598,-4.7653,-4.767,-4.7676,-4.7746,-4.7695,-4.7699,-4.7701,-4.7703,-4.7864,-4.7865,0,0,0,0,0,0,-4.7457,-4.7469,-4.757,-4.7574,-4.7506,-4.7555,-4.7563,-4.7587,-4.7628,-4.7632,-4.76,-4.7598,-4.7664,-4.7671,-4.7678,-4.7746,-4.7699,-4.7703,-4.7706,-4.7862,-4.7864,-4.7866,0,0,0,0,0,0,-4.7454,-4.7466,-4.7567,-4.7522,-4.7534,-4.7559,-4.7586,-4.759,-4.7607,-4.7635,-4.7639,-4.7613,-4.7663,-4.7672,-4.7724,-4.7749,-4.7705,-4.7709,-4.786,-4.7863,-4.7865,-4.7884,0,0,0,0,0,0,-4.745,-4.7465,-4.7487,-4.7522,-4.7537,-4.7611,-4.7588,-4.7592,-4.7614,-4.7613,-4.7648,-4.7653,-4.7662,-4.7718,-4.7728,-4.7754,-4.7712,-4.7858,-4.7861,-4.7864,-4.7881,-4.7887,-4.7892,0,0,0,0,0,-4.7445,-4.7489,-4.7488,-4.75,-4.7565,-4.7613,-4.7621,-4.7632,-4.7617,-4.7638,-4.7656,-4.7652,-4.7745,-4.7723,-4.7735,-4.7762,-4.7856,-4.786,-4.7864,-4.7879,-4.7886,-4.7892,0,0,0,0,0,0,-4.7455,-4.7494,-4.7493,-4.7549,-4.7578,-4.7612,-4.7639,-4.7639,-4.7672,-4.7669,-4.768,-4.7688,-4.774,-4.7757,-4.7731,-4.7819,-4.7799,-4.7805,-4.7806,-4.7813,-4.7818,-4.7812,-4.7716,0,0,0,0,0,-4.7464,-4.75,-4.7532,-4.7579,-4.7593,-4.7614,-4.7636,-4.7642,-4.7671,-4.7683,-4.7705,-4.7733,-4.7769,-4.7792,-4.7827,-4.7885,-4.7892,-4.7909,-4.7915,-4.7919,-4.7924,-4.7955,-4.7963,-4.7879,-4.7879,-4.7879,0,0,-4.7482,-4.7508,-4.753,-4.7582,-4.7604,-4.7641,-4.7624,-4.7664,-4.7691,-4.7689,-4.7738,-4.7756,-4.7789,-4.7843,-4.7868,-4.7859,-4.7949,-4.7924,-4.7927,-4.7929,-4.796,-4.7967,-4.7974,-4.7881,-4.7881,-4.7881,0,0,-4.7534,-4.7558,-4.7599,-4.7623,-4.7658,-4.7671,-4.7682,-4.7716,-4.7727,-4.7778,-4.7777,-4.781,-4.7871,-4.7895,-4.7915,-4.7977,-4.7974,-4.7989,-4.8015,-4.8045,-4.8052,-4.8058,-4.8079,-4.8086,-4.7994,-4.7994,-4.7994,0,-4.7552,-4.7607,-4.762,-4.766,-4.7682,-4.7684,-4.7725,-4.7748,-4.7792,-4.7807,-4.7797,-4.7874,-4.7897,-4.7956,-4.7972,-4.7989,-4.8,-4.7983,-4.805,-4.8056,-4.8062,-4.8082,-4.809,-4.7995,-4.7995,-4.7995,-4.7995,0,-4.7627,-4.7666,-4.7695,-4.7738,-4.7764,-4.7805,-4.7824,-4.7849,-4.7853,-4.7868,-4.792,-4.7947,-4.7987,-4.8002,-4.8007,-4.8063,-4.8056,-4.8048,-4.8026,-4.8071,-4.809,-4.8098,-4.7997,-4.7997,-4.7996,-4.7996,0,0,-4.7684,-4.7735,-4.7745,-4.7765,-4.7805,-4.7834,-4.7876,-4.7915,-4.7936,-4.7968,-4.8001,-4.8055,-4.8048,-4.807,-4.8078,-4.8105,-4.8151,-4.8094,-4.8095,-4.8102,-4.8214,-4.8217,-4.8226,-4.8151,-4.8152,-4.8154,-4.821,0,-4.7738,-4.781,-4.7824,-4.7886,-4.7922,-4.7925,-4.7961,-4.7989,-4.8005,-4.8037,-4.8055,-4.8092,-4.808,-4.8094,-4.8121,-4.814,-4.8174,-4.8137,-4.8181,-4.8182,-4.817,-4.8236,-4.824,-4.8292,-4.8218,-4.8219,-4.822,0,-4.781,-4.7843,-4.791,-4.7945,-4.796,-4.7992,-4.803,-4.8061,-4.8093,-4.8103,-4.8129,-4.8134,-4.8177,-4.8157,-4.8215,-4.8189,-4.8209,-4.8222,-4.8224,-4.8226,-4.8202,-4.8238,-4.8309,-4.8316,-4.8232,-4.8231,-4.823,0,-4.7842,-4.7904,-4.7952,-4.7969,-4.8012,-4.8034,-4.8053,-4.8084,-4.8107,-4.814,-4.8155,-4.8193,-4.8213,-4.8243,-4.8258,-4.8242,-4.8315,-4.8296,-4.8323,-4.8322,-4.8336,-4.8334,-4.8408,-4.8353,-4.8353,-4.8352,-4.8352,0,-4.7899,-4.7939,-4.7967,-4.7996,-4.8041,-4.8057,-4.8101,-4.8119,-4.8147,-4.818,-4.8186,-4.8216,-4.8236,-4.8269,-4.8282,-4.8327,-4.8337,-4.8345,-4.8348,-4.8343,-4.8342,-4.8354,-4.835,-4.8354,-4.8354,-4.8354,-4.8353,0,-4.7941,-4.7962,-4.8013,-4.805,-4.8061,-4.8092,-4.8124,-4.8152,-4.8169,-4.821,-4.8221,-4.8247,-4.8286,-4.8305,-4.8355,-4.8363,-4.8414,-4.8416,-4.8403,-4.8404,-4.8429,-4.8425,-4.8512,-4.8523,-4.8462,-4.8462,-4.8463,0,-4.7975,-4.8006,-4.8047,-4.8069,-4.8089,-4.8125,-4.8149,-4.8166,-4.8191,-4.8231,-4.8254,-4.8294,-4.8327,-4.839,-4.8413,-4.8451,-4.8452,-4.848,-4.8457,-4.8452,-4.845,-4.8447,-4.8449,-4.8483,-4.8483,-4.8484,-4.8484,0,-4.8032,-4.8041,-4.8076,-4.8114,-4.8142,-4.8173,-4.8204,-4.8222,-4.8244,-4.8272,-4.8313,-4.8338,-4.8389,-4.8428,-4.8468,-4.8487,-4.8489,-4.8492,-4.8499,-4.8494,-4.8484,-4.8488,-4.8411,-4.8489,-4.8488,-4.8488,-4.8488,-4.8487,-4.807,-4.8098,-4.813,-4.8169,-4.8194,-4.8222,-4.825,-4.8271,-4.8306,-4.8348,-4.8357,-4.84,-4.8433,-4.8486,-4.8507,-4.8541,-4.8535,-4.8547,-4.8549,-4.8551,-4.8551,-4.8482,-4.8549,-4.8549,-4.8549,-4.8548,-4.8548,0,-4.8126,-4.8148,-4.8183,-4.8225,-4.8256,-4.8257,-4.8291,-4.8315,-4.8353,-4.8384,-4.8416,-4.8463,-4.8502,-4.8529,-4.8568,-4.859,-4.8592,-4.86,-4.8597,-4.8601,-4.8556,-4.8544,-4.8597,-4.8597,-4.8597,-4.8597,-4.8597,-4.8597,-4.8158,-4.8205,-4.8218,-4.8276,-4.8298,-4.834,-4.8359,-4.8386,-4.841,-4.8462,-4.8495,-4.8512,-4.8542,-4.8583,-4.8619,-4.8626,-4.8639,-4.8647,-4.8653,-4.861,-4.8604,-4.8599,-4.8588,-4.865,-4.865,-4.8695,-4.8696,-4.8696]},{"header":{"parameterUnit":"m.s-1","parameterCategory":1,"la1":30.2991,"la2":30.254,"lo1":-89.0895,"lo2":-89.0444,"dy":0.0017,"dx":0.0017,"nx":28,"ny":28,"refTime":"2025-04-05T03:00:00:Z","depth":0,"parameterNumber":3,"parameterNumberName":"V-component_of_WINDS"},"data":[0,0,0,0,0,0,0,0,0,0,0,0,0,0,0,0,0,0,0,0,0,0,0,0,0,0,0,0,0,0,0,0,0,0,0,0,0,0,0,0,0,0,0,0,0,0,0,0,0,0,0,0,0,0,0,0,0,0,4.9724,4.9726,0,4.9847,4.9848,4.985,4.9857,4.9856,4.9854,4.9853,4.9976,4.998,4.9985,0,0,0,0,0,0,0,0,0,0,0,0,0,4.9497,4.9502,4.9724,4.9726,4.9727,4.9847,4.9848,4.985,4.9857,4.9856,4.9854,4.9852,4.9975,4.998,4.9985,0,0,0,0,0,0,0,0,0,0,0,0,0,4.9605,4.9503,4.9724,4.9746,4.9749,4.9846,4.9848,4.985,4.9858,4.9856,4.9854,4.9852,4.9973,4.9979,4.9986,5.007,0,0,5.0007,5.001,0,0,0,0,0,0,0,0,4.9599,4.9614,4.9741,4.9744,4.9748,4.9835,4.9813,4.9924,4.9858,4.9816,4.9853,4.9851,4.9931,4.9941,4.9968,5.0076,5.0081,5.0008,5.0012,5.0015,5.0017,0,0,0,0,0,0,0,4.9592,4.9608,4.9773,4.9743,4.9747,4.9749,4.9762,4.9834,4.9883,4.982,4.9821,4.9835,4.9932,4.9962,4.9971,5.0083,5.0007,5.0014,5.0018,5.002,5.0268,5.0271,0,0,0,0,0,0,4.958,4.9602,4.9769,4.9776,4.9667,4.9755,4.977,4.9809,4.9883,4.9892,4.9837,4.9835,4.9951,4.9963,4.9975,5.0081,5.0015,5.0021,5.0025,5.0266,5.0269,5.0272,0,0,0,0,0,0,4.9575,4.9595,4.9764,4.969,4.9711,4.9761,4.9805,4.9812,4.9842,4.9896,4.9904,4.9858,4.995,4.9966,5.0047,5.0085,5.0024,5.003,5.0263,5.0267,5.027,5.0291,0,0,0,0,0,0,4.9569,4.9593,4.9625,4.969,4.9715,4.9834,4.9807,4.9816,4.9854,4.9853,4.9918,4.9926,4.9949,5.0037,5.0054,5.0093,5.0036,5.026,5.0265,5.0269,5.0287,5.0294,5.0301,0,0,0,0,0,4.9561,4.9625,4.9627,4.9647,4.9756,4.9836,4.985,4.9876,4.9857,4.989,4.9925,4.9924,5.0078,5.0045,5.0065,5.0106,5.0258,5.0263,5.0269,5.0283,5.0293,5.0301,0,0,0,0,0,0,4.9561,4.9634,4.9637,4.9724,4.9774,4.9837,4.9879,4.9884,4.994,4.9937,4.9965,4.998,5.0061,5.0092,5.0054,5.0193,5.0166,5.0175,5.017,5.018,5.0187,5.0178,5.0041,0,0,0,0,0,4.9572,4.9631,4.969,4.9762,4.9787,4.9829,4.9864,4.988,4.9933,4.9954,4.9994,5.0045,5.0105,5.0144,5.0202,5.0291,5.0307,5.033,5.0337,5.0342,5.0351,5.0403,5.0415,5.029,5.029,5.029,0,0,4.9594,4.9641,4.9676,4.9763,4.9804,4.9865,4.9846,4.991,4.9956,4.9963,5.0044,5.0075,5.0134,5.0221,5.0261,5.0248,5.0389,5.0349,5.0354,5.0359,5.041,5.0422,5.0432,5.0294,5.0293,5.0293,0,0,4.9665,4.9706,4.9771,4.9813,4.9875,4.9903,4.9919,4.9982,5.0004,5.0086,5.0093,5.0148,5.025,5.0292,5.0327,5.0418,5.0421,5.0436,5.0474,5.0525,5.0535,5.0543,5.0578,5.059,5.0444,5.0444,5.0444,0,4.9685,4.9777,4.9804,4.9869,4.9908,4.9919,4.9986,5.0025,5.0103,5.013,5.0115,5.0246,5.0286,5.0384,5.0407,5.0434,5.0454,5.0429,5.0531,5.054,5.0549,5.0582,5.0595,5.0446,5.0445,5.0445,5.0445,0,4.9799,4.9863,4.9908,4.9985,5.0029,5.0094,5.0132,5.0174,5.0186,5.0216,5.03,5.0349,5.0418,5.0443,5.0454,5.0544,5.0534,5.0525,5.0498,5.0562,5.0594,5.0607,5.0448,5.0447,5.0447,5.0446,0,0,4.9873,4.9966,4.9983,5.0019,5.009,5.014,5.0207,5.0276,5.0313,5.0366,5.0424,5.0512,5.0505,5.0544,5.0561,5.0606,5.0678,5.0591,5.0593,5.0608,5.0782,5.079,5.0804,5.068,5.0682,5.0684,5.0778,0,4.9954,5.0075,5.0102,5.0206,5.0267,5.0279,5.0338,5.0388,5.0418,5.0474,5.0507,5.057,5.0554,5.0579,5.0623,5.066,5.0714,5.0653,5.0735,5.0738,5.0722,5.0821,5.0829,5.0915,5.079,5.0793,5.0794,0,5.0065,5.0123,5.0234,5.03,5.0326,5.0378,5.0446,5.0499,5.0557,5.0576,5.0622,5.0635,5.0706,5.0676,5.0775,5.0733,5.0769,5.0792,5.0796,5.0806,5.0771,5.0835,5.0943,5.0956,5.0814,5.0812,5.0811,0,5.0111,5.0217,5.0298,5.0328,5.0406,5.0443,5.0478,5.0533,5.0574,5.0633,5.066,5.0726,5.0762,5.0813,5.0844,5.0818,5.0942,5.0913,5.0961,5.0961,5.0987,5.0985,5.1104,5.1007,5.1007,5.1006,5.1006,0,5.02,5.0267,5.032,5.037,5.0447,5.0478,5.0553,5.0587,5.0637,5.0695,5.0708,5.0761,5.0798,5.0857,5.0881,5.0962,5.0977,5.0996,5.1002,5.0996,5.0994,5.102,5.1015,5.101,5.1009,5.1009,5.1008,0,5.0265,5.0303,5.0392,5.046,5.0478,5.0532,5.059,5.0639,5.067,5.0743,5.0761,5.081,5.088,5.0916,5.1003,5.102,5.1111,5.1112,5.1092,5.1095,5.1141,5.1137,5.1282,5.1304,5.1191,5.1192,5.1192,0,5.032,5.0373,5.0447,5.0487,5.0522,5.0586,5.0628,5.0662,5.0705,5.0777,5.0818,5.0889,5.0948,5.106,5.1103,5.117,5.1175,5.1221,5.1185,5.1178,5.1178,5.1176,5.1182,5.1228,5.1229,5.123,5.123,0,5.0414,5.0431,5.0492,5.0562,5.0613,5.0668,5.0722,5.0754,5.0797,5.0845,5.0918,5.0964,5.1054,5.1126,5.1197,5.1232,5.1239,5.1241,5.1257,5.1252,5.1239,5.1249,5.1112,5.1238,5.1237,5.1237,5.1236,5.1236,5.0478,5.0526,5.0587,5.0656,5.0701,5.0752,5.0803,5.0842,5.0903,5.098,5.0996,5.1073,5.1132,5.1229,5.1266,5.1328,5.1318,5.1339,5.1345,5.135,5.1354,5.1228,5.1341,5.1341,5.134,5.134,5.134,0,5.0575,5.0616,5.0678,5.0756,5.081,5.0813,5.0874,5.092,5.0988,5.1043,5.1102,5.1187,5.1256,5.1306,5.1377,5.1417,5.1423,5.1435,5.1433,5.1442,5.1357,5.1338,5.143,5.143,5.143,5.143,5.143,5.143,5.0632,5.0716,5.074,5.0847,5.0887,5.0964,5.0999,5.1047,5.1092,5.1186,5.1245,5.1277,5.1331,5.1406,5.1471,5.1484,5.1511,5.1523,5.1537,5.1457,5.1447,5.1438,5.1421,5.1528,5.1529,5.1617,5.1617,5.1618]}]]